This demonstration page uses our WeatherBlox Daily Observations layout. Learn more.

Hourly Observations for October 2, 2020

Temp ( °F °C ) Dew Point ( °F °C ) Humidity (%) Winds ( mph kmh ) Pressure ( in mb ) Visibility ( mi km ) Precip ( " mm )
12:53 am 00:53 Clear 47 8.3 24 -4.4 41 41 undefined N/A 30.17 1022 10 16.0934 0 0
1:53 am 01:53 Clear 47 8.3 24 -4.4 41 41 undefined N/A 30.14 1021 10 16.0934 0 0
2:53 am 02:53 Clear 41 5 24 -4.4 51 51 E 7 11 30.14 1021 10 16.0934 0 0
3:53 am 03:53 Clear 38 3.3 25 -3.9 60 60 ESE 5 7 30.13 1020 10 16.0934 0 0
4:53 am 04:53 Clear 37 2.8 25 -3.9 62 62 Calm 30.13 1020 10 16.0934 0 0
5:53 am 05:53 Clear 36 2.2 26 -3.3 67 67 NNW 5 7 30.14 1021 10 16.0934 0 0
6:53 am 06:53 Clear 34 1.1 26 -3.3 73 73 NW 7 11 30.17 1022 10 16.0934 0 0
7:53 am 07:53 Sunny 39 3.9 29 -1.7 67 67 WNW 8 13 30.17 1022 10 16.0934 0 0
8:53 am 08:53 Sunny 47 8.3 30 -1.1 52 52 NW 10 17 30.15 1021 10 16.0934 0 0
9:53 am 09:53 Sunny 55 12.8 31 -0.6 40 40 WNW 10 17 30.11 1020 10 16.0934 0 0
10:53 am 10:53 Sunny 63 17.2 34 1.1 34 34 W 9 15 30.08 1019 10 16.0934 0 0
11:53 am 11:53 Sunny 69 20.6 34 1.1 27 27 WNW 8 13 30.05 1018 10 16.0934 0 0
12:53 pm 12:53 Sunny 72 22.2 33 0.6 24 24 W 9 15 30 1016 10 16.0934 0 0
1:53 pm 13:53 Sunny 73 22.8 32 0 22 22 W 9 15 29.96 1015 10 16.0934 0 0
2:53 pm 14:53 Sunny 78 25.6 32 0 19 19 WNW 12 19 29.93 1014 10 16.0934 0 0
3:53 pm 15:53 Sunny 80 26.7 31 -0.6 17 17 NW 15 24 29.92 1013 10 16.0934 0 0
4:53 pm 16:53 Sunny 78 25.6 30 -1.1 17 17 NNW 22 35 29.92 1013 10 16.0934 0 0
5:53 pm 17:53 Sunny 64 17.8 33 0.6 32 32 NNE 31 50 30.01 1016 10 16.0934 0 0
6:53 pm 18:53 Clear 57 13.9 32 0 39 39 NE 21 33 30.09 1019 10 16.0934 0 0
7:53 pm 19:53 Clear 54 12.2 30 -1.1 40 40 ESE 9 15 30.14 1021 10 16.0934 0 0
8:53 pm 20:53 Partly Cloudy 51 10.6 31 -0.6 46 46 Calm 30.15 1021 10 16.0934 0 0
9:53 pm 21:53 Clear 50 10 31 -0.6 48 48 Calm 30.14 1021 10 16.0934 0 0
10:53 pm 22:53 Mostly Clear 47 8.3 32 0 56 56 WNW 6 9 30.13 1020 10 16.0934 0 0
11:53 pm 23:53 Clear 43 6.1 32 0 65 65 NNW 6 9 30.14 1021 10 16.0934 0 0

Powered by AerisWeather